DW5833 Weather Reports


time (UTC)temp
F
wind
direction
speed
knots
gust
knots
rain 1hr
in
rain 24hr
in
rain mn
in
humidity
%
barometer
mb
20260507213041 57 356 0.9 7.0 0.00 0.19 0.00 34 1004.4
20260507211544 58 49 0.9 4.3 0.00 0.19 0.00 34 1004.3
20260507210040 58 270 0.9 3.5 0.00 0.19 0.00 34 1004.4
20260507204539 58 333 1.7 5.2 0.00 0.21 0.00 33 1004.4
20260507203039 58 351 0.0 3.5 0.00 0.21 0.00 36 1004.2
20260507201542 58 1 1.7 7.8 0.00 0.21 0.00 34 1004.3
20260507200039 58 321 1.7 6.1 0.00 0.21 0.00 35 1004.4
20260507194535 57 345 2.6 7.8 0.00 0.23 0.00 35 1004.5
20260507193036 58 335 2.6 6.1 0.00 0.23 0.00 36 1004.5
20260507191533 57 323 1.7 4.3 0.00 0.23 0.00 37 1004.7
20260507190032 56 355 1.7 5.2 0.00 0.23 0.00 37 1004.8
20260507184531 57 322 1.7 3.5 0.00 0.28 0.00 37 1005.0
20260507183042 58 356 1.7 6.1 0.00 0.28 0.00 35 1005.0
20260507181530 59 25 1.7 4.3 0.00 0.28 0.00 38 1005.1
20260507180032 58 308 0.9 5.2 0.00 0.28 0.00 37 1005.0
20260507174527 58 54 1.7 6.1 0.00 0.31 0.00 38 1005.0
20260507173026 57 289 0.0 3.5 0.00 0.31 0.00 41 1005.1
20260507171523 58 64 0.9 5.2 0.00 0.31 0.00 40 1005.4
20260507170023 57 86 0.9 6.1 0.00 0.31 0.00 41 1005.4
20260507164521 57 328 3.5 6.1 0.00 0.31 0.00 40 1005.6
20260507163020 57 331 1.7 6.1 0.00 0.31 0.00 43 1005.5
20260507161523 57 255 2.6 5.2 0.00 0.31 0.00 46 1005.5
20260507160036 56 339 0.9 5.2 0.00 0.31 0.00 45 1005.8
20260507154516 56 336 1.7 4.3 0.00 0.31 0.00 51 1005.9
20260507153011 55 336 1.7 7.0 0.00 0.31 0.00 53 1006.1
20260507151508 54 19 1.7 7.0 0.00 0.31 0.00 60 1006.3
20260507150006 53 278 0.9 3.5 0.00 0.31 0.00 65 1006.3
20260507144502 53 318 0.0 3.5 0.00 0.31 0.00 66 1006.4
20260507143100 53 335 0.9 3.5 0.00 0.31 0.00 66 1006.3
20260507141600 52 338 1.7 4.3 0.00 0.31 0.00 66 1006.5
20260507140106 52 330 1.7 5.2 0.00 0.31 0.00 68 1006.4
20260507134553 52 328 0.9 5.2 0.00 0.31 0.00 71 1006.7
20260507133050 51 314 0.9 7.0 0.00 0.31 0.00 73 1006.7
20260507131547 50 335 0.9 2.6 0.00 0.31 0.00 77 1006.9
20260507130054 50 315 0.9 3.5 0.00 0.31 0.00 78 1006.8
20260507124557 49 326 0.0 1.7 0.00 0.31 0.00 80 1006.7
20260507123038 48 303 0.0 1.7 0.00 0.31 0.00 82 1006.7
20260507121538 47 327 0.9 3.5 0.00 0.31 0.00 82 1006.9
20260507120039 47 17 0.0 3.5 0.00 0.31 0.00 84 1007.0
20260507114541 46 274 0.0 4.3 0.00 0.31 0.00 86 1006.8
20260507113035 45 352 0.0 2.6 0.00 0.31 0.00 87 1006.8
20260507111532 45 329 0.0 2.6 0.00 0.31 0.00 88 1006.9
20260507110036 44 349 0.0 1.7 0.00 0.31 0.00 90 1006.6
20260507104530 44 309 0.0 0.0 0.00 0.31 0.00 89 1006.4
20260507103029 44 322 0.0 1.7 0.00 0.31 0.00 89 1006.4
20260507101527 44 324 0.0 5.2 0.00 0.31 0.00 89 1006.1
20260507100026 44 320 0.9 2.6 0.00 0.31 0.00 89 1006.6
20260507094525 44 328 0.9 3.5 0.00 0.31 0.00 89 1006.1
20260507093031 44 321 0.9 3.5 0.00 0.31 0.00 89 1006.3
20260507091535 44 327 0.9 3.5 0.00 0.31 0.00 90 1006.3
20260507090021 44 328 0.0 1.7 0.00 0.31 0.00 89 1006.6
20260507084524 45 326 0.9 3.5 0.00 0.31 0.00 89 1005.8
20260507083018 45 15 0.9 5.2 0.00 0.31 0.00 90 1005.8
20260507081520 45 349 0.0 2.6 0.00 0.31 0.00 90 1005.8
20260507080015 45 317 0.0 2.6 0.00 0.31 0.00 90 1005.8
20260507074514 45 335 0.0 1.7 0.00 0.31 0.00 91 1005.9
20260507073012 45 321 0.9 3.5 0.00 0.31 0.00 91 1005.3
20260507071511 45 315 0.9 2.6 0.00 0.31 0.00 92 1005.5
20260507070012 46 322 0.9 4.3 0.00 0.31 0.00 92 1005.2
20260507064508 46 323 0.9 4.3 0.00 0.31 0.00 92 1005.3
20260507063023 46 315 1.7 5.2 0.00 0.31 0.00 93 1005.2
20260507061504 46 309 0.9 3.5 0.00 0.31 0.00 94 1005.4
20260507060002 47 319 0.0 2.6 0.00 0.31 0.00 94 1005.4
20260507054501 47 321 1.7 4.3 0.00 0.31 0.00 94 1005.3
20260507053100 47 309 0.9 3.5 0.00 0.31 0.00 95 1005.3
20260507051602 47 283 0.0 3.5 0.00 0.31 0.00 95 1005.2
20260507050101 47 330 0.9 4.3 0.00 0.31 0.00 95 1005.0
20260507044556 47 321 0.9 2.6 0.00 0.31 0.00 95 1004.9
20260507043055 48 328 0.9 2.6 0.00 0.31 0.00 95 1005.1
20260507041551 48 345 0.9 3.5 0.00 0.31 0.00 95 1005.2
20260507040047 48 323 1.7 3.5 0.05 0.31 0.00 95 1005.2
20260507034545 49 323 0.0 1.7 0.07 0.31 0.31 95 1004.9
20260507033045 49 276 0.0 2.6 0.08 0.31 0.31 95 1005.0
20260507031541 50 320 0.9 5.2 0.09 0.31 0.31 95 1005.0
20260507030041 50 316 1.7 6.1 0.04 0.26 0.26 94 1005.1
20260507024536 52 349 1.7 6.1 0.03 0.24 0.24 95 1004.7
20260507023030 53 326 1.7 4.3 0.09 0.23 0.23 95 1004.6
20260507021528 54 324 0.9 5.2 0.09 0.22 0.22 95 1004.3
20260507020031 55 314 0.9 5.2 0.09 0.22 0.22 95 1003.9
20260507014519 57 321 0.0 3.5 0.08 0.21 0.21 96 1004.0
20260507013033 58 236 0.0 0.9 0.01 0.14 0.14 96 1003.6
20260507011516 58 240 0.0 1.7 0.00 0.13 0.13 96 1003.4
20260507010015 58 236 0.0 1.7 0.00 0.13 0.13 96 1003.5
20260507004514 58 229 0.0 1.7 0.00 0.13 0.13 96 1003.4
20260507003014 58 203 0.0 1.7 0.00 0.13 0.13 96 1003.3
20260507001513 58 219 0.0 1.7 0.00 0.13 0.13 96 1003.3
20260507000015 58 169 0.0 2.6 0.00 0.13 0.13 96 1003.2
20260506234520 58 204 0.0 2.6 0.00 0.13 0.13 96 1003.0
20260506233013 58 233 0.0 1.7 0.00 0.13 0.13 96 1003.0
20260506231510 58 238 0.0 2.6 0.00 0.13 0.13 96 1003.1
20260506230009 58 259 0.0 2.6 0.00 0.13 0.13 96 1003.0
20260506224509 58 226 0.0 3.5 0.00 0.13 0.13 96 1003.0
20260506223007 58 214 0.9 3.5 0.00 0.13 0.13 96 1003.1
20260506221504 58 288 0.9 2.6 0.00 0.13 0.13 96 1003.2
20260506220010 58 153 0.9 5.2 0.00 0.13 0.13 96 1003.4
20260506214504 59 188 0.9 3.5 0.01 0.13 0.13 96 1003.3